sat.trackr.live / text

‹ back to catalog

STARLINK-36203

NORAD 67214 · 2025-304Y

PAYLOAD ACTIVE UNKNOWN

§ Identity

Operator
Country
US
Launch date
2025-12-17
Launch site
AFWTR
Launch vehicle
Mass (kg)
RCS (m²)

Purposes: comms

External: N2YO · Heavens-Above · Gunter

§ Orbital elements

Epoch: 2026-09-19T09:12:07.230528Z

Period
96.11 min
Inclination
70.0013°
Eccentricity
0.0003108
Mean motion
14.98338332 rev/d
Perigee alt
569.9 km
Apogee alt
574.2 km
Semi-major
6,950.2 km
B*
2.7094e-4
RAAN
46.2588°
Arg perigee
272.8222°
Mean anomaly
87.2582°
Rev number
4,289

§ Raw data

STARLINK-362031 67214U 25304Y   26262.38341702  .00003142  00000+0  27094-3 0  99942 67214  70.0013  46.2588 0003108 272.8222  87.2582 14.98338332 42892

JSON: /api/v1/satellites/67214 · /tle

For live sub-satellite position, see the globe view (requires WebGL).

§ Visibility from observer

Set your observer location to see the next 7 days of passes ≥ 10°. The values pass through the URL so the page stays shareable.

No JS? Fill the form by hand. The geolocation button needs JavaScript.